Index of /20260506/WXO-DD/model_caps/3km/00/003
Name Last modified Size Description
Parent Directory -
20260506T00Z_MSC_CAPS_AbsoluteVorticity_IsbL-0250_RLatLon0.03_PT003H.grib2 2026-05-06 06:05 908K
20260506T00Z_MSC_CAPS_AbsoluteVorticity_IsbL-0500_RLatLon0.03_PT003H.grib2 2026-05-06 06:05 1.1M
20260506T00Z_MSC_CAPS_AbsoluteVorticity_IsbL-0700_RLatLon0.03_PT003H.grib2 2026-05-06 06:05 1.4M
20260506T00Z_MSC_CAPS_AbsoluteVorticity_IsbL-0850_RLatLon0.03_PT003H.grib2 2026-05-06 06:05 1.3M
20260506T00Z_MSC_CAPS_AbsoluteVorticity_IsbL-1000_RLatLon0.03_PT003H.grib2 2026-05-06 06:05 1.4M
20260506T00Z_MSC_CAPS_AirDensity_AGL-120m_RLatLon0.03_PT003H.grib2 2026-05-06 06:05 1.4M
20260506T00Z_MSC_CAPS_AirDensity_AGL-40m_RLatLon0.03_PT003H.grib2 2026-05-06 06:05 1.5M
20260506T00Z_MSC_CAPS_AirDensity_AGL-80m_RLatLon0.03_PT003H.grib2 2026-05-06 06:05 1.4M
20260506T00Z_MSC_CAPS_AirTemp_AGL-120m_RLatLon0.03_PT003H.grib2 2026-05-06 06:05 1.4M
20260506T00Z_MSC_CAPS_AirTemp_AGL-2m_RLatLon0.03_PT003H.grib2 2026-05-06 06:05 1.7M
20260506T00Z_MSC_CAPS_AirTemp_AGL-40m_RLatLon0.03_PT003H.grib2 2026-05-06 06:05 1.5M
20260506T00Z_MSC_CAPS_AirTemp_AGL-80m_RLatLon0.03_PT003H.grib2 2026-05-06 06:05 1.4M
20260506T00Z_MSC_CAPS_AirTemp_IsbL-0050_RLatLon0.03_PT003H.grib2 2026-05-06 06:05 702K
20260506T00Z_MSC_CAPS_AirTemp_IsbL-0100_RLatLon0.03_PT003H.grib2 2026-05-06 06:05 948K
20260506T00Z_MSC_CAPS_AirTemp_IsbL-0150_RLatLon0.03_PT003H.grib2 2026-05-06 06:05 746K
20260506T00Z_MSC_CAPS_AirTemp_IsbL-0175_RLatLon0.03_PT003H.grib2 2026-05-06 06:05 773K
20260506T00Z_MSC_CAPS_AirTemp_IsbL-0200_RLatLon0.03_PT003H.grib2 2026-05-06 06:05 796K
20260506T00Z_MSC_CAPS_AirTemp_IsbL-0225_RLatLon0.03_PT003H.grib2 2026-05-06 06:05 794K
20260506T00Z_MSC_CAPS_AirTemp_IsbL-0250_RLatLon0.03_PT003H.grib2 2026-05-06 06:05 1.0M
20260506T00Z_MSC_CAPS_AirTemp_IsbL-0275_RLatLon0.03_PT003H.grib2 2026-05-06 06:05 1.0M
20260506T00Z_MSC_CAPS_AirTemp_IsbL-0300_RLatLon0.03_PT003H.grib2 2026-05-06 06:05 1.0M
20260506T00Z_MSC_CAPS_AirTemp_IsbL-0350_RLatLon0.03_PT003H.grib2 2026-05-06 06:05 763K
20260506T00Z_MSC_CAPS_AirTemp_IsbL-0400_RLatLon0.03_PT003H.grib2 2026-05-06 06:05 768K
20260506T00Z_MSC_CAPS_AirTemp_IsbL-0450_RLatLon0.03_PT003H.grib2 2026-05-06 06:05 776K
20260506T00Z_MSC_CAPS_AirTemp_IsbL-0500_RLatLon0.03_PT003H.grib2 2026-05-06 06:05 789K
20260506T00Z_MSC_CAPS_AirTemp_IsbL-0550_RLatLon0.03_PT003H.grib2 2026-05-06 06:05 802K
20260506T00Z_MSC_CAPS_AirTemp_IsbL-0600_RLatLon0.03_PT003H.grib2 2026-05-06 06:05 819K
20260506T00Z_MSC_CAPS_AirTemp_IsbL-0650_RLatLon0.03_PT003H.grib2 2026-05-06 06:05 844K
20260506T00Z_MSC_CAPS_AirTemp_IsbL-0700_RLatLon0.03_PT003H.grib2 2026-05-06 06:05 1.0M
20260506T00Z_MSC_CAPS_AirTemp_IsbL-0750_RLatLon0.03_PT003H.grib2 2026-05-06 06:05 970K
20260506T00Z_MSC_CAPS_AirTemp_IsbL-0800_RLatLon0.03_PT003H.grib2 2026-05-06 06:05 1.0M
20260506T00Z_MSC_CAPS_AirTemp_IsbL-0850_RLatLon0.03_PT003H.grib2 2026-05-06 06:05 1.0M
20260506T00Z_MSC_CAPS_AirTemp_IsbL-0875_RLatLon0.03_PT003H.grib2 2026-05-06 06:05 1.0M
20260506T00Z_MSC_CAPS_AirTemp_IsbL-0900_RLatLon0.03_PT003H.grib2 2026-05-06 06:05 1.0M
20260506T00Z_MSC_CAPS_AirTemp_IsbL-0925_RLatLon0.03_PT003H.grib2 2026-05-06 06:05 1.0M
20260506T00Z_MSC_CAPS_AirTemp_IsbL-0950_RLatLon0.03_PT003H.grib2 2026-05-06 06:05 1.0M
20260506T00Z_MSC_CAPS_AirTemp_IsbL-0970_RLatLon0.03_PT003H.grib2 2026-05-06 06:05 1.1M
20260506T00Z_MSC_CAPS_AirTemp_IsbL-0985_RLatLon0.03_PT003H.grib2 2026-05-06 06:05 1.0M
20260506T00Z_MSC_CAPS_AirTemp_IsbL-1000_RLatLon0.03_PT003H.grib2 2026-05-06 06:05 1.0M
20260506T00Z_MSC_CAPS_AirTemp_IsbL-1015_RLatLon0.03_PT003H.grib2 2026-05-06 06:05 1.1M
20260506T00Z_MSC_CAPS_Albedo_Sfc_RLatLon0.03_PT003H.grib2 2026-05-06 06:05 2.7M
20260506T00Z_MSC_CAPS_CAPE_Sfc_RLatLon0.03_PT003H.grib2 2026-05-06 06:05 216K
20260506T00Z_MSC_CAPS_CloudWater_EAtm_RLatLon0.03_PT003H.grib2 2026-05-06 06:05 1.4M
20260506T00Z_MSC_CAPS_ConvectivePrecip-Accum_Sfc_RLatLon0.03_PT003H.grib2 2026-05-06 06:05 1.5M
20260506T00Z_MSC_CAPS_DewPointDepression_AGL-120m_RLatLon0.03_PT003H.grib2 2026-05-06 06:05 2.0M
20260506T00Z_MSC_CAPS_DewPointDepression_AGL-2m_RLatLon0.03_PT003H.grib2 2026-05-06 06:05 2.1M
20260506T00Z_MSC_CAPS_DewPointDepression_AGL-40m_RLatLon0.03_PT003H.grib2 2026-05-06 06:05 2.1M
20260506T00Z_MSC_CAPS_DewPointDepression_AGL-80m_RLatLon0.03_PT003H.grib2 2026-05-06 06:05 2.0M
20260506T00Z_MSC_CAPS_DewPointDepression_IsbL-0050_RLatLon0.03_PT003H.grib2 2026-05-06 06:05 2.5K
20260506T00Z_MSC_CAPS_DewPointDepression_IsbL-0100_RLatLon0.03_PT003H.grib2 2026-05-06 06:05 49K
20260506T00Z_MSC_CAPS_DewPointDepression_IsbL-0150_RLatLon0.03_PT003H.grib2 2026-05-06 06:05 48K
20260506T00Z_MSC_CAPS_DewPointDepression_IsbL-0175_RLatLon0.03_PT003H.grib2 2026-05-06 06:05 207K
20260506T00Z_MSC_CAPS_DewPointDepression_IsbL-0200_RLatLon0.03_PT003H.grib2 2026-05-06 06:05 377K
20260506T00Z_MSC_CAPS_DewPointDepression_IsbL-0225_RLatLon0.03_PT003H.grib2 2026-05-06 06:05 565K
20260506T00Z_MSC_CAPS_DewPointDepression_IsbL-0250_RLatLon0.03_PT003H.grib2 2026-05-06 06:05 800K
20260506T00Z_MSC_CAPS_DewPointDepression_IsbL-0275_RLatLon0.03_PT003H.grib2 2026-05-06 06:05 938K
20260506T00Z_MSC_CAPS_DewPointDepression_IsbL-0300_RLatLon0.03_PT003H.grib2 2026-05-06 06:05 1.0M
20260506T00Z_MSC_CAPS_DewPointDepression_IsbL-0350_RLatLon0.03_PT003H.grib2 2026-05-06 06:05 1.0M
20260506T00Z_MSC_CAPS_DewPointDepression_IsbL-0400_RLatLon0.03_PT003H.grib2 2026-05-06 06:05 1.1M
20260506T00Z_MSC_CAPS_DewPointDepression_IsbL-0450_RLatLon0.03_PT003H.grib2 2026-05-06 06:05 1.1M
20260506T00Z_MSC_CAPS_DewPointDepression_IsbL-0500_RLatLon0.03_PT003H.grib2 2026-05-06 06:05 1.1M
20260506T00Z_MSC_CAPS_DewPointDepression_IsbL-0550_RLatLon0.03_PT003H.grib2 2026-05-06 06:05 1.1M
20260506T00Z_MSC_CAPS_DewPointDepression_IsbL-0600_RLatLon0.03_PT003H.grib2 2026-05-06 06:05 1.1M
20260506T00Z_MSC_CAPS_DewPointDepression_IsbL-0650_RLatLon0.03_PT003H.grib2 2026-05-06 06:05 1.2M
20260506T00Z_MSC_CAPS_DewPointDepression_IsbL-0700_RLatLon0.03_PT003H.grib2 2026-05-06 06:05 1.2M
20260506T00Z_MSC_CAPS_DewPointDepression_IsbL-0750_RLatLon0.03_PT003H.grib2 2026-05-06 06:05 1.2M
20260506T00Z_MSC_CAPS_DewPointDepression_IsbL-0800_RLatLon0.03_PT003H.grib2 2026-05-06 06:05 1.2M
20260506T00Z_MSC_CAPS_DewPointDepression_IsbL-0850_RLatLon0.03_PT003H.grib2 2026-05-06 06:05 1.3M
20260506T00Z_MSC_CAPS_DewPointDepression_IsbL-0875_RLatLon0.03_PT003H.grib2 2026-05-06 06:05 1.3M
20260506T00Z_MSC_CAPS_DewPointDepression_IsbL-0900_RLatLon0.03_PT003H.grib2 2026-05-06 06:05 1.3M
20260506T00Z_MSC_CAPS_DewPointDepression_IsbL-0925_RLatLon0.03_PT003H.grib2 2026-05-06 06:05 1.3M
20260506T00Z_MSC_CAPS_DewPointDepression_IsbL-0950_RLatLon0.03_PT003H.grib2 2026-05-06 06:05 1.3M
20260506T00Z_MSC_CAPS_DewPointDepression_IsbL-0970_RLatLon0.03_PT003H.grib2 2026-05-06 06:05 1.3M
20260506T00Z_MSC_CAPS_DewPointDepression_IsbL-0985_RLatLon0.03_PT003H.grib2 2026-05-06 06:05 1.3M
20260506T00Z_MSC_CAPS_DewPointDepression_IsbL-1000_RLatLon0.03_PT003H.grib2 2026-05-06 06:05 1.3M
20260506T00Z_MSC_CAPS_DewPointDepression_IsbL-1015_RLatLon0.03_PT003H.grib2 2026-05-06 06:05 1.3M
20260506T00Z_MSC_CAPS_DewPoint_AGL-120m_RLatLon0.03_PT003H.grib2 2026-05-06 06:05 3.5M
20260506T00Z_MSC_CAPS_DewPoint_AGL-2m_RLatLon0.03_PT003H.grib2 2026-05-06 06:05 1.7M
20260506T00Z_MSC_CAPS_DewPoint_AGL-40m_RLatLon0.03_PT003H.grib2 2026-05-06 06:05 3.6M
20260506T00Z_MSC_CAPS_DewPoint_AGL-80m_RLatLon0.03_PT003H.grib2 2026-05-06 06:05 3.5M
20260506T00Z_MSC_CAPS_DownwardLongwaveRadiationFlux-Accum_Sfc_RLatLon0.03_PT003H.grib2 2026-05-06 06:05 2.6M
20260506T00Z_MSC_CAPS_DownwardShortwaveRadiationFlux-Accum_NTAtm_RLatLon0.03_PT003H.grib2 2026-05-06 06:05 382K
20260506T00Z_MSC_CAPS_DownwardShortwaveRadiationFlux-Accum_Sfc_RLatLon0.03_PT003H.grib2 2026-05-06 06:05 1.6M
20260506T00Z_MSC_CAPS_FreezingRain-Accum_Sfc_RLatLon0.03_PT003H.grib2 2026-05-06 06:05 174K
20260506T00Z_MSC_CAPS_GeopotentialHeight_IsbL-0050_RLatLon0.03_PT003H.grib2 2026-05-06 06:05 628K
20260506T00Z_MSC_CAPS_GeopotentialHeight_IsbL-0100_RLatLon0.03_PT003H.grib2 2026-05-06 06:05 820K
20260506T00Z_MSC_CAPS_GeopotentialHeight_IsbL-0150_RLatLon0.03_PT003H.grib2 2026-05-06 06:05 604K
20260506T00Z_MSC_CAPS_GeopotentialHeight_IsbL-0175_RLatLon0.03_PT003H.grib2 2026-05-06 06:05 718K
20260506T00Z_MSC_CAPS_GeopotentialHeight_IsbL-0200_RLatLon0.03_PT003H.grib2 2026-05-06 06:05 738K
20260506T00Z_MSC_CAPS_GeopotentialHeight_IsbL-0225_RLatLon0.03_PT003H.grib2 2026-05-06 06:05 760K
20260506T00Z_MSC_CAPS_GeopotentialHeight_IsbL-0250_RLatLon0.03_PT003H.grib2 2026-05-06 06:05 773K
20260506T00Z_MSC_CAPS_GeopotentialHeight_IsbL-0275_RLatLon0.03_PT003H.grib2 2026-05-06 06:05 781K
20260506T00Z_MSC_CAPS_GeopotentialHeight_IsbL-0300_RLatLon0.03_PT003H.grib2 2026-05-06 06:05 787K
20260506T00Z_MSC_CAPS_GeopotentialHeight_IsbL-0350_RLatLon0.03_PT003H.grib2 2026-05-06 06:05 787K
20260506T00Z_MSC_CAPS_GeopotentialHeight_IsbL-0400_RLatLon0.03_PT003H.grib2 2026-05-06 06:05 781K
20260506T00Z_MSC_CAPS_GeopotentialHeight_IsbL-0450_RLatLon0.03_PT003H.grib2 2026-05-06 06:05 772K
20260506T00Z_MSC_CAPS_GeopotentialHeight_IsbL-0500_RLatLon0.03_PT003H.grib2 2026-05-06 06:05 762K
20260506T00Z_MSC_CAPS_GeopotentialHeight_IsbL-0550_RLatLon0.03_PT003H.grib2 2026-05-06 06:05 644K
20260506T00Z_MSC_CAPS_GeopotentialHeight_IsbL-0600_RLatLon0.03_PT003H.grib2 2026-05-06 06:05 638K
20260506T00Z_MSC_CAPS_GeopotentialHeight_IsbL-0650_RLatLon0.03_PT003H.grib2 2026-05-06 06:05 811K
20260506T00Z_MSC_CAPS_GeopotentialHeight_IsbL-0700_RLatLon0.03_PT003H.grib2 2026-05-06 06:05 812K
20260506T00Z_MSC_CAPS_GeopotentialHeight_IsbL-0750_RLatLon0.03_PT003H.grib2 2026-05-06 06:05 815K
20260506T00Z_MSC_CAPS_GeopotentialHeight_IsbL-0800_RLatLon0.03_PT003H.grib2 2026-05-06 06:05 824K
20260506T00Z_MSC_CAPS_GeopotentialHeight_IsbL-0850_RLatLon0.03_PT003H.grib2 2026-05-06 06:05 833K
20260506T00Z_MSC_CAPS_GeopotentialHeight_IsbL-0875_RLatLon0.03_PT003H.grib2 2026-05-06 06:05 826K
20260506T00Z_MSC_CAPS_GeopotentialHeight_IsbL-0900_RLatLon0.03_PT003H.grib2 2026-05-06 06:05 850K
20260506T00Z_MSC_CAPS_GeopotentialHeight_IsbL-0925_RLatLon0.03_PT003H.grib2 2026-05-06 06:05 669K
20260506T00Z_MSC_CAPS_GeopotentialHeight_IsbL-0950_RLatLon0.03_PT003H.grib2 2026-05-06 06:05 676K
20260506T00Z_MSC_CAPS_GeopotentialHeight_IsbL-0970_RLatLon0.03_PT003H.grib2 2026-05-06 06:05 683K
20260506T00Z_MSC_CAPS_GeopotentialHeight_IsbL-0985_RLatLon0.03_PT003H.grib2 2026-05-06 06:05 686K
20260506T00Z_MSC_CAPS_GeopotentialHeight_IsbL-1000_RLatLon0.03_PT003H.grib2 2026-05-06 06:05 692K
20260506T00Z_MSC_CAPS_GeopotentialHeight_IsbL-1015_RLatLon0.03_PT003H.grib2 2026-05-06 06:05 700K
20260506T00Z_MSC_CAPS_GeopotentialHeight_Sfc_RLatLon0.03_PT003H.grib2 2026-05-06 06:05 1.0M
20260506T00Z_MSC_CAPS_IcePellets-Accum_Sfc_RLatLon0.03_PT003H.grib2 2026-05-06 06:05 29K
20260506T00Z_MSC_CAPS_LatentHeatNetFlux_Sfc_RLatLon0.03_PT003H.grib2 2026-05-06 06:05 1.9M
20260506T00Z_MSC_CAPS_LiftedIndex-MU-VT_IsbL-0500_RLatLon0.03_PT003H.grib2 2026-05-06 06:05 3.3M
20260506T00Z_MSC_CAPS_MixedLayerThickness_Sfc_RLatLon0.03_PT003H.nc 2026-05-06 06:11 16M
20260506T00Z_MSC_CAPS_NetLongwaveRadiationFlux-Accum_Sfc_RLatLon0.03_PT003H.grib2 2026-05-06 06:05 2.9M
20260506T00Z_MSC_CAPS_NetShortwaveRadiationFlux-Accum_Sfc_RLatLon0.03_PT003H.grib2 2026-05-06 06:05 1.7M
20260506T00Z_MSC_CAPS_PlanetaryBoundaryLayerHeight_Sfc_RLatLon0.03_PT003H.grib2 2026-05-06 06:05 2.8M
20260506T00Z_MSC_CAPS_Precip-Accum_Sfc_RLatLon0.03_PT003H.grib2 2026-05-06 06:05 2.4M
20260506T00Z_MSC_CAPS_PrecipRate_Sfc_RLatLon0.03_PT003H.grib2 2026-05-06 06:05 298K
20260506T00Z_MSC_CAPS_PrecipType-Instant_Sfc_RLatLon0.03_PT003H.grib2 2026-05-06 06:05 1.4M
20260506T00Z_MSC_CAPS_Pressure_MSL_RLatLon0.03_PT003H.grib2 2026-05-06 06:05 924K
20260506T00Z_MSC_CAPS_Pressure_Sfc_RLatLon0.03_PT003H.grib2 2026-05-06 06:05 1.2M
20260506T00Z_MSC_CAPS_RadiativeTemp_Sfc_RLatLon0.03_PT003H.grib2 2026-05-06 06:05 2.1M
20260506T00Z_MSC_CAPS_Rain-Accum_Sfc_RLatLon0.03_PT003H.grib2 2026-05-06 06:05 1.1M
20260506T00Z_MSC_CAPS_RelativeHumidity_AGL-120m_RLatLon0.03_PT003H.grib2 2026-05-06 06:05 2.7M
20260506T00Z_MSC_CAPS_RelativeHumidity_AGL-2m_RLatLon0.03_PT003H.grib2 2026-05-06 06:05 2.9M
20260506T00Z_MSC_CAPS_RelativeHumidity_AGL-40m_RLatLon0.03_PT003H.grib2 2026-05-06 06:05 2.8M
20260506T00Z_MSC_CAPS_RelativeHumidity_AGL-80m_RLatLon0.03_PT003H.grib2 2026-05-06 06:05 2.7M
20260506T00Z_MSC_CAPS_RelativeHumidity_IsbL-0050_RLatLon0.03_PT003H.grib2 2026-05-06 06:05 953K
20260506T00Z_MSC_CAPS_RelativeHumidity_IsbL-0100_RLatLon0.03_PT003H.grib2 2026-05-06 06:05 834K
20260506T00Z_MSC_CAPS_RelativeHumidity_IsbL-0150_RLatLon0.03_PT003H.grib2 2026-05-06 06:05 571K
20260506T00Z_MSC_CAPS_RelativeHumidity_IsbL-0175_RLatLon0.03_PT003H.grib2 2026-05-06 06:05 461K
20260506T00Z_MSC_CAPS_RelativeHumidity_IsbL-0200_RLatLon0.03_PT003H.grib2 2026-05-06 06:05 630K
20260506T00Z_MSC_CAPS_RelativeHumidity_IsbL-0225_RLatLon0.03_PT003H.grib2 2026-05-06 06:05 858K
20260506T00Z_MSC_CAPS_RelativeHumidity_IsbL-0250_RLatLon0.03_PT003H.grib2 2026-05-06 06:05 1.1M
20260506T00Z_MSC_CAPS_RelativeHumidity_IsbL-0275_RLatLon0.03_PT003H.grib2 2026-05-06 06:05 1.3M
20260506T00Z_MSC_CAPS_RelativeHumidity_IsbL-0300_RLatLon0.03_PT003H.grib2 2026-05-06 06:05 1.4M
20260506T00Z_MSC_CAPS_RelativeHumidity_IsbL-0350_RLatLon0.03_PT003H.grib2 2026-05-06 06:05 1.8M
20260506T00Z_MSC_CAPS_RelativeHumidity_IsbL-0400_RLatLon0.03_PT003H.grib2 2026-05-06 06:05 1.8M
20260506T00Z_MSC_CAPS_RelativeHumidity_IsbL-0450_RLatLon0.03_PT003H.grib2 2026-05-06 06:05 1.9M
20260506T00Z_MSC_CAPS_RelativeHumidity_IsbL-0500_RLatLon0.03_PT003H.grib2 2026-05-06 06:05 1.8M
20260506T00Z_MSC_CAPS_RelativeHumidity_IsbL-0550_RLatLon0.03_PT003H.grib2 2026-05-06 06:05 2.0M
20260506T00Z_MSC_CAPS_RelativeHumidity_IsbL-0600_RLatLon0.03_PT003H.grib2 2026-05-06 06:05 1.9M
20260506T00Z_MSC_CAPS_RelativeHumidity_IsbL-0650_RLatLon0.03_PT003H.grib2 2026-05-06 06:05 2.1M
20260506T00Z_MSC_CAPS_RelativeHumidity_IsbL-0700_RLatLon0.03_PT003H.grib2 2026-05-06 06:05 2.2M
20260506T00Z_MSC_CAPS_RelativeHumidity_IsbL-0750_RLatLon0.03_PT003H.grib2 2026-05-06 06:05 2.2M
20260506T00Z_MSC_CAPS_RelativeHumidity_IsbL-0800_RLatLon0.03_PT003H.grib2 2026-05-06 06:05 2.4M
20260506T00Z_MSC_CAPS_RelativeHumidity_IsbL-0850_RLatLon0.03_PT003H.grib2 2026-05-06 06:05 2.5M
20260506T00Z_MSC_CAPS_RelativeHumidity_IsbL-0875_RLatLon0.03_PT003H.grib2 2026-05-06 06:05 2.5M
20260506T00Z_MSC_CAPS_RelativeHumidity_IsbL-0900_RLatLon0.03_PT003H.grib2 2026-05-06 06:05 2.5M
20260506T00Z_MSC_CAPS_RelativeHumidity_IsbL-0925_RLatLon0.03_PT003H.grib2 2026-05-06 06:05 2.6M
20260506T00Z_MSC_CAPS_RelativeHumidity_IsbL-0950_RLatLon0.03_PT003H.grib2 2026-05-06 06:05 2.7M
20260506T00Z_MSC_CAPS_RelativeHumidity_IsbL-0970_RLatLon0.03_PT003H.grib2 2026-05-06 06:05 2.8M
20260506T00Z_MSC_CAPS_RelativeHumidity_IsbL-0985_RLatLon0.03_PT003H.grib2 2026-05-06 06:05 2.8M
20260506T00Z_MSC_CAPS_RelativeHumidity_IsbL-1000_RLatLon0.03_PT003H.grib2 2026-05-06 06:05 2.9M
20260506T00Z_MSC_CAPS_RelativeHumidity_IsbL-1015_RLatLon0.03_PT003H.grib2 2026-05-06 06:05 2.9M
20260506T00Z_MSC_CAPS_Runoff-Accum_Sfc_RLatLon0.03_PT003H.grib2 2026-05-06 06:05 236K
20260506T00Z_MSC_CAPS_SeaIceAreaFraction_Sfc_RLatLon0.03_PT003H.nc 2026-05-06 06:11 15M
20260506T00Z_MSC_CAPS_SeaIceCompressiveStrength_Sfc_RLatLon0.03_PT003H.nc 2026-05-06 06:11 15M
20260506T00Z_MSC_CAPS_SeaIceDivergence_Sfc_RLatLon0.03_PT003H.nc 2026-05-06 06:11 15M
20260506T00Z_MSC_CAPS_SeaIceInternalPressure_Sfc_RLatLon0.03_PT003H.nc 2026-05-06 06:11 15M
20260506T00Z_MSC_CAPS_SeaIceShear_Sfc_RLatLon0.03_PT003H.nc 2026-05-06 06:11 15M
20260506T00Z_MSC_CAPS_SeaIceSnowTemp_Sfc_RLatLon0.03_PT003H.nc 2026-05-06 06:11 14M
20260506T00Z_MSC_CAPS_SeaIceSnowVolume_Sfc_RLatLon0.03_PT003H.nc 2026-05-06 06:11 15M
20260506T00Z_MSC_CAPS_SeaIceVelocityX_Sfc_RLatLon0.03_PT003H.nc 2026-05-06 06:11 15M
20260506T00Z_MSC_CAPS_SeaIceVelocityY_Sfc_RLatLon0.03_PT003H.nc 2026-05-06 06:11 15M
20260506T00Z_MSC_CAPS_SeaIceVolume_Sfc_RLatLon0.03_PT003H.nc 2026-05-06 06:11 15M
20260506T00Z_MSC_CAPS_SeaSurfaceHeight_Sfc_RLatLon0.03_PT003H.nc 2026-05-06 06:11 16M
20260506T00Z_MSC_CAPS_SeaWaterSalinity_DBS-0.5m_RLatLon0.03_PT003H.nc 2026-05-06 06:11 16M
20260506T00Z_MSC_CAPS_SeaWaterSalinity_DBS-all_RLatLon0.03_PT003H.nc 2026-05-06 06:11 107M
20260506T00Z_MSC_CAPS_SeaWaterTemp_DBS-0.5m_RLatLon0.03_PT003H.nc 2026-05-06 06:11 15M
20260506T00Z_MSC_CAPS_SeaWaterTemp_DBS-all_RLatLon0.03_PT003H.nc 2026-05-06 06:11 88M
20260506T00Z_MSC_CAPS_SeaWaterVelocityX_DBS-0.5m_RLatLon0.03_PT003H.nc 2026-05-06 06:11 18M
20260506T00Z_MSC_CAPS_SeaWaterVelocityX_DBS-all_RLatLon0.03_PT003H.nc 2026-05-06 06:11 210M
20260506T00Z_MSC_CAPS_SeaWaterVelocityY_DBS-0.5m_RLatLon0.03_PT003H.nc 2026-05-06 06:11 18M
20260506T00Z_MSC_CAPS_SeaWaterVelocityY_DBS-all_RLatLon0.03_PT003H.nc 2026-05-06 06:11 216M
20260506T00Z_MSC_CAPS_SensibleHeatNetFlux_Sfc_RLatLon0.03_PT003H.grib2 2026-05-06 06:05 1.7M
20260506T00Z_MSC_CAPS_ShowalterIndex_IsbL-0500_RLatLon0.03_PT003H.grib2 2026-05-06 06:05 3.8M
20260506T00Z_MSC_CAPS_Snow-Accum_Sfc_RLatLon0.03_PT003H.grib2 2026-05-06 06:05 1.8M
20260506T00Z_MSC_CAPS_SnowDensity_Sfc_RLatLon0.03_PT003H.grib2 2026-05-06 06:05 1.1M
20260506T00Z_MSC_CAPS_SnowDepthWaterEquivalent_Sfc_RLatLon0.03_PT003H.grib2 2026-05-06 06:05 645K
20260506T00Z_MSC_CAPS_SnowDepth_Sfc_RLatLon0.03_PT003H.grib2 2026-05-06 06:05 1.1M
20260506T00Z_MSC_CAPS_SoilTemp_DBS-0to10cm_RLatLon0.03_PT003H.grib2 2026-05-06 06:05 1.2M
20260506T00Z_MSC_CAPS_SoilTemp_Sfc_RLatLon0.03_PT003H.grib2 2026-05-06 06:05 1.8M
20260506T00Z_MSC_CAPS_SoilVolumetricIceContent_Sfc_RLatLon0.03_PT003H.grib2 2026-05-06 06:05 1.3M
20260506T00Z_MSC_CAPS_SoilVolumetricWaterContent_DBS-0to10cm_RLatLon0.03_PT003H.grib2 2026-05-06 06:05 1.2M
20260506T00Z_MSC_CAPS_SoilVolumetricWaterContent_DBS-0to1cm_RLatLon0.03_PT003H.grib2 2026-05-06 06:05 1.7M
20260506T00Z_MSC_CAPS_SpecificHumidity_AGL-120m_RLatLon0.03_PT003H.grib2 2026-05-06 06:05 1.7M
20260506T00Z_MSC_CAPS_SpecificHumidity_AGL-2m_RLatLon0.03_PT003H.grib2 2026-05-06 06:05 1.7M
20260506T00Z_MSC_CAPS_SpecificHumidity_AGL-40m_RLatLon0.03_PT003H.grib2 2026-05-06 06:05 1.4M
20260506T00Z_MSC_CAPS_SpecificHumidity_AGL-80m_RLatLon0.03_PT003H.grib2 2026-05-06 06:05 1.7M
20260506T00Z_MSC_CAPS_SpecificHumidity_IsbL-0050_RLatLon0.03_PT003H.grib2 2026-05-06 06:05 864K
20260506T00Z_MSC_CAPS_SpecificHumidity_IsbL-0100_RLatLon0.03_PT003H.grib2 2026-05-06 06:05 1.1M
20260506T00Z_MSC_CAPS_SpecificHumidity_IsbL-0150_RLatLon0.03_PT003H.grib2 2026-05-06 06:05 1.0M
20260506T00Z_MSC_CAPS_SpecificHumidity_IsbL-0175_RLatLon0.03_PT003H.grib2 2026-05-06 06:05 971K
20260506T00Z_MSC_CAPS_SpecificHumidity_IsbL-0200_RLatLon0.03_PT003H.grib2 2026-05-06 06:05 835K
20260506T00Z_MSC_CAPS_SpecificHumidity_IsbL-0225_RLatLon0.03_PT003H.grib2 2026-05-06 06:05 1.0M
20260506T00Z_MSC_CAPS_SpecificHumidity_IsbL-0250_RLatLon0.03_PT003H.grib2 2026-05-06 06:05 1.0M
20260506T00Z_MSC_CAPS_SpecificHumidity_IsbL-0275_RLatLon0.03_PT003H.grib2 2026-05-06 06:05 1.0M
20260506T00Z_MSC_CAPS_SpecificHumidity_IsbL-0300_RLatLon0.03_PT003H.grib2 2026-05-06 06:05 940K
20260506T00Z_MSC_CAPS_SpecificHumidity_IsbL-0350_RLatLon0.03_PT003H.grib2 2026-05-06 06:05 1.3M
20260506T00Z_MSC_CAPS_SpecificHumidity_IsbL-0400_RLatLon0.03_PT003H.grib2 2026-05-06 06:05 1.1M
20260506T00Z_MSC_CAPS_SpecificHumidity_IsbL-0450_RLatLon0.03_PT003H.grib2 2026-05-06 06:05 1.0M
20260506T00Z_MSC_CAPS_SpecificHumidity_IsbL-0500_RLatLon0.03_PT003H.grib2 2026-05-06 06:05 1.2M
20260506T00Z_MSC_CAPS_SpecificHumidity_IsbL-0550_RLatLon0.03_PT003H.grib2 2026-05-06 06:05 1.1M
20260506T00Z_MSC_CAPS_SpecificHumidity_IsbL-0600_RLatLon0.03_PT003H.grib2 2026-05-06 06:05 1.2M
20260506T00Z_MSC_CAPS_SpecificHumidity_IsbL-0650_RLatLon0.03_PT003H.grib2 2026-05-06 06:05 1.4M
20260506T00Z_MSC_CAPS_SpecificHumidity_IsbL-0700_RLatLon0.03_PT003H.grib2 2026-05-06 06:05 1.2M
20260506T00Z_MSC_CAPS_SpecificHumidity_IsbL-0750_RLatLon0.03_PT003H.grib2 2026-05-06 06:05 1.3M
20260506T00Z_MSC_CAPS_SpecificHumidity_IsbL-0800_RLatLon0.03_PT003H.grib2 2026-05-06 06:05 1.5M
20260506T00Z_MSC_CAPS_SpecificHumidity_IsbL-0850_RLatLon0.03_PT003H.grib2 2026-05-06 06:05 1.6M
20260506T00Z_MSC_CAPS_SpecificHumidity_IsbL-0875_RLatLon0.03_PT003H.grib2 2026-05-06 06:05 1.7M
20260506T00Z_MSC_CAPS_SpecificHumidity_IsbL-0900_RLatLon0.03_PT003H.grib2 2026-05-06 06:05 1.4M
20260506T00Z_MSC_CAPS_SpecificHumidity_IsbL-0925_RLatLon0.03_PT003H.grib2 2026-05-06 06:05 1.4M
20260506T00Z_MSC_CAPS_SpecificHumidity_IsbL-0950_RLatLon0.03_PT003H.grib2 2026-05-06 06:05 1.5M
20260506T00Z_MSC_CAPS_SpecificHumidity_IsbL-0970_RLatLon0.03_PT003H.grib2 2026-05-06 06:05 1.6M
20260506T00Z_MSC_CAPS_SpecificHumidity_IsbL-0985_RLatLon0.03_PT003H.grib2 2026-05-06 06:05 1.6M
20260506T00Z_MSC_CAPS_SpecificHumidity_IsbL-1000_RLatLon0.03_PT003H.grib2 2026-05-06 06:05 1.7M
20260506T00Z_MSC_CAPS_SpecificHumidity_IsbL-1015_RLatLon0.03_PT003H.grib2 2026-05-06 06:05 1.7M
20260506T00Z_MSC_CAPS_SpecificHumidity_Sfc_RLatLon0.03_PT003H.grib2 2026-05-06 06:05 2.0M
20260506T00Z_MSC_CAPS_StormRelativeHelicity_Sfc_RLatLon0.03_PT003H.grib2 2026-05-06 06:05 3.3M
20260506T00Z_MSC_CAPS_Thickness_IsbL-1000to0500_RLatLon0.03_PT003H.grib2 2026-05-06 06:05 476K
20260506T00Z_MSC_CAPS_TotalCloudCover_Sfc_RLatLon0.03_PT003H.grib2 2026-05-06 06:05 3.2M
20260506T00Z_MSC_CAPS_TurboclineDepth_Sfc_RLatLon0.03_PT003H.nc 2026-05-06 06:11 16M
20260506T00Z_MSC_CAPS_UpwardLongwaveRadiationFlux_NTAtm_RLatLon0.03_PT003H.grib2 2026-05-06 06:05 2.8M
20260506T00Z_MSC_CAPS_UpwardShortwaveRadiationFlux_NTAtm_RLatLon0.03_PT003H.grib2 2026-05-06 06:05 1.8M
20260506T00Z_MSC_CAPS_VerticalVelocity_IsbL-0250_RLatLon0.03_PT003H.grib2 2026-05-06 06:05 1.2M
20260506T00Z_MSC_CAPS_VerticalVelocity_IsbL-0500_RLatLon0.03_PT003H.grib2 2026-05-06 06:05 1.2M
20260506T00Z_MSC_CAPS_VerticalVelocity_IsbL-0700_RLatLon0.03_PT003H.grib2 2026-05-06 06:05 1.3M
20260506T00Z_MSC_CAPS_VerticalVelocity_IsbL-0850_RLatLon0.03_PT003H.grib2 2026-05-06 06:05 1.1M
20260506T00Z_MSC_CAPS_VerticalVelocity_IsbL-1000_RLatLon0.03_PT003H.grib2 2026-05-06 06:05 1.4M
20260506T00Z_MSC_CAPS_WindDir_AGL-10m_RLatLon0.03_PT003H.grib2 2026-05-06 06:05 2.3M
20260506T00Z_MSC_CAPS_WindDir_AGL-120m_RLatLon0.03_PT003H.grib2 2026-05-06 06:05 1.2M
20260506T00Z_MSC_CAPS_WindDir_AGL-40m_RLatLon0.03_PT003H.grib2 2026-05-06 06:05 1.3M
20260506T00Z_MSC_CAPS_WindDir_AGL-80m_RLatLon0.03_PT003H.grib2 2026-05-06 06:05 1.2M
20260506T00Z_MSC_CAPS_WindDir_IsbL-0050_RLatLon0.03_PT003H.grib2 2026-05-06 06:05 1.1M
20260506T00Z_MSC_CAPS_WindDir_IsbL-0100_RLatLon0.03_PT003H.grib2 2026-05-06 06:05 1.0M
20260506T00Z_MSC_CAPS_WindDir_IsbL-0150_RLatLon0.03_PT003H.grib2 2026-05-06 06:05 1.0M
20260506T00Z_MSC_CAPS_WindDir_IsbL-0175_RLatLon0.03_PT003H.grib2 2026-05-06 06:05 1.0M
20260506T00Z_MSC_CAPS_WindDir_IsbL-0200_RLatLon0.03_PT003H.grib2 2026-05-06 06:05 1.1M
20260506T00Z_MSC_CAPS_WindDir_IsbL-0225_RLatLon0.03_PT003H.grib2 2026-05-06 06:05 1.1M
20260506T00Z_MSC_CAPS_WindDir_IsbL-0250_RLatLon0.03_PT003H.grib2 2026-05-06 06:05 1.1M
20260506T00Z_MSC_CAPS_WindDir_IsbL-0275_RLatLon0.03_PT003H.grib2 2026-05-06 06:05 1.1M
20260506T00Z_MSC_CAPS_WindDir_IsbL-0300_RLatLon0.03_PT003H.grib2 2026-05-06 06:05 1.1M
20260506T00Z_MSC_CAPS_WindDir_IsbL-0350_RLatLon0.03_PT003H.grib2 2026-05-06 06:05 1.1M
20260506T00Z_MSC_CAPS_WindDir_IsbL-0400_RLatLon0.03_PT003H.grib2 2026-05-06 06:05 1.2M
20260506T00Z_MSC_CAPS_WindDir_IsbL-0450_RLatLon0.03_PT003H.grib2 2026-05-06 06:05 1.2M
20260506T00Z_MSC_CAPS_WindDir_IsbL-0500_RLatLon0.03_PT003H.grib2 2026-05-06 06:05 1.2M
20260506T00Z_MSC_CAPS_WindDir_IsbL-0550_RLatLon0.03_PT003H.grib2 2026-05-06 06:05 1.3M
20260506T00Z_MSC_CAPS_WindDir_IsbL-0600_RLatLon0.03_PT003H.grib2 2026-05-06 06:05 1.3M
20260506T00Z_MSC_CAPS_WindDir_IsbL-0650_RLatLon0.03_PT003H.grib2 2026-05-06 06:05 1.3M
20260506T00Z_MSC_CAPS_WindDir_IsbL-0700_RLatLon0.03_PT003H.grib2 2026-05-06 06:05 1.4M
20260506T00Z_MSC_CAPS_WindDir_IsbL-0750_RLatLon0.03_PT003H.grib2 2026-05-06 06:05 1.6M
20260506T00Z_MSC_CAPS_WindDir_IsbL-0800_RLatLon0.03_PT003H.grib2 2026-05-06 06:05 1.7M
20260506T00Z_MSC_CAPS_WindDir_IsbL-0850_RLatLon0.03_PT003H.grib2 2026-05-06 06:05 1.8M
20260506T00Z_MSC_CAPS_WindDir_IsbL-0875_RLatLon0.03_PT003H.grib2 2026-05-06 06:05 1.8M
20260506T00Z_MSC_CAPS_WindDir_IsbL-0900_RLatLon0.03_PT003H.grib2 2026-05-06 06:05 1.9M
20260506T00Z_MSC_CAPS_WindDir_IsbL-0925_RLatLon0.03_PT003H.grib2 2026-05-06 06:05 1.9M
20260506T00Z_MSC_CAPS_WindDir_IsbL-0950_RLatLon0.03_PT003H.grib2 2026-05-06 06:05 2.0M
20260506T00Z_MSC_CAPS_WindDir_IsbL-0970_RLatLon0.03_PT003H.grib2 2026-05-06 06:05 2.1M
20260506T00Z_MSC_CAPS_WindDir_IsbL-0985_RLatLon0.03_PT003H.grib2 2026-05-06 06:05 2.1M
20260506T00Z_MSC_CAPS_WindDir_IsbL-1000_RLatLon0.03_PT003H.grib2 2026-05-06 06:05 2.2M
20260506T00Z_MSC_CAPS_WindDir_IsbL-1015_RLatLon0.03_PT003H.grib2 2026-05-06 06:05 2.3M
20260506T00Z_MSC_CAPS_WindGust-Max_AGL-10m_RLatLon0.03_PT003H.grib2 2026-05-06 06:05 2.5M
20260506T00Z_MSC_CAPS_WindGust-Min_AGL-10m_RLatLon0.03_PT003H.grib2 2026-05-06 06:05 2.4M
20260506T00Z_MSC_CAPS_WindGust_AGL-10m_RLatLon0.03_PT003H.grib2 2026-05-06 06:05 2.5M
20260506T00Z_MSC_CAPS_WindSpeed_AGL-10m_RLatLon0.03_PT003H.grib2 2026-05-06 06:05 2.1M
20260506T00Z_MSC_CAPS_WindSpeed_AGL-120m_RLatLon0.03_PT003H.grib2 2026-05-06 06:05 1.1M
20260506T00Z_MSC_CAPS_WindSpeed_AGL-40m_RLatLon0.03_PT003H.grib2 2026-05-06 06:05 1.2M
20260506T00Z_MSC_CAPS_WindSpeed_AGL-80m_RLatLon0.03_PT003H.grib2 2026-05-06 06:05 1.2M
20260506T00Z_MSC_CAPS_WindSpeed_IsbL-0050_RLatLon0.03_PT003H.grib2 2026-05-06 06:05 1.0M
20260506T00Z_MSC_CAPS_WindSpeed_IsbL-0100_RLatLon0.03_PT003H.grib2 2026-05-06 06:05 1.3M
20260506T00Z_MSC_CAPS_WindSpeed_IsbL-0150_RLatLon0.03_PT003H.grib2 2026-05-06 06:05 1.0M
20260506T00Z_MSC_CAPS_WindSpeed_IsbL-0175_RLatLon0.03_PT003H.grib2 2026-05-06 06:05 1.1M
20260506T00Z_MSC_CAPS_WindSpeed_IsbL-0200_RLatLon0.03_PT003H.grib2 2026-05-06 06:05 1.1M
20260506T00Z_MSC_CAPS_WindSpeed_IsbL-0225_RLatLon0.03_PT003H.grib2 2026-05-06 06:05 962K
20260506T00Z_MSC_CAPS_WindSpeed_IsbL-0250_RLatLon0.03_PT003H.grib2 2026-05-06 06:05 1.0M
20260506T00Z_MSC_CAPS_WindSpeed_IsbL-0275_RLatLon0.03_PT003H.grib2 2026-05-06 06:05 1.0M
20260506T00Z_MSC_CAPS_WindSpeed_IsbL-0300_RLatLon0.03_PT003H.grib2 2026-05-06 06:05 1.0M
20260506T00Z_MSC_CAPS_WindSpeed_IsbL-0350_RLatLon0.03_PT003H.grib2 2026-05-06 06:05 1.0M
20260506T00Z_MSC_CAPS_WindSpeed_IsbL-0400_RLatLon0.03_PT003H.grib2 2026-05-06 06:05 1.0M
20260506T00Z_MSC_CAPS_WindSpeed_IsbL-0450_RLatLon0.03_PT003H.grib2 2026-05-06 06:05 1.0M
20260506T00Z_MSC_CAPS_WindSpeed_IsbL-0500_RLatLon0.03_PT003H.grib2 2026-05-06 06:05 1.0M
20260506T00Z_MSC_CAPS_WindSpeed_IsbL-0550_RLatLon0.03_PT003H.grib2 2026-05-06 06:05 1.4M
20260506T00Z_MSC_CAPS_WindSpeed_IsbL-0600_RLatLon0.03_PT003H.grib2 2026-05-06 06:05 1.3M
20260506T00Z_MSC_CAPS_WindSpeed_IsbL-0650_RLatLon0.03_PT003H.grib2 2026-05-06 06:05 1.4M
20260506T00Z_MSC_CAPS_WindSpeed_IsbL-0700_RLatLon0.03_PT003H.grib2 2026-05-06 06:05 1.5M
20260506T00Z_MSC_CAPS_WindSpeed_IsbL-0750_RLatLon0.03_PT003H.grib2 2026-05-06 06:05 1.5M
20260506T00Z_MSC_CAPS_WindSpeed_IsbL-0800_RLatLon0.03_PT003H.grib2 2026-05-06 06:05 1.6M
20260506T00Z_MSC_CAPS_WindSpeed_IsbL-0850_RLatLon0.03_PT003H.grib2 2026-05-06 06:05 1.7M
20260506T00Z_MSC_CAPS_WindSpeed_IsbL-0875_RLatLon0.03_PT003H.grib2 2026-05-06 06:05 1.8M
20260506T00Z_MSC_CAPS_WindSpeed_IsbL-0900_RLatLon0.03_PT003H.grib2 2026-05-06 06:05 1.9M
20260506T00Z_MSC_CAPS_WindSpeed_IsbL-0925_RLatLon0.03_PT003H.grib2 2026-05-06 06:05 1.9M
20260506T00Z_MSC_CAPS_WindSpeed_IsbL-0950_RLatLon0.03_PT003H.grib2 2026-05-06 06:05 2.0M
20260506T00Z_MSC_CAPS_WindSpeed_IsbL-0970_RLatLon0.03_PT003H.grib2 2026-05-06 06:05 2.1M
20260506T00Z_MSC_CAPS_WindSpeed_IsbL-0985_RLatLon0.03_PT003H.grib2 2026-05-06 06:05 2.1M
20260506T00Z_MSC_CAPS_WindSpeed_IsbL-1000_RLatLon0.03_PT003H.grib2 2026-05-06 06:05 2.1M
20260506T00Z_MSC_CAPS_WindSpeed_IsbL-1015_RLatLon0.03_PT003H.grib2 2026-05-06 06:05 2.1M
20260506T00Z_MSC_CAPS_WindU_AGL-10m_RLatLon0.03_PT003H.grib2 2026-05-06 06:05 2.0M
20260506T00Z_MSC_CAPS_WindU_AGL-120m_RLatLon0.03_PT003H.grib2 2026-05-06 06:05 902K
20260506T00Z_MSC_CAPS_WindU_AGL-40m_RLatLon0.03_PT003H.grib2 2026-05-06 06:05 1.2M
20260506T00Z_MSC_CAPS_WindU_AGL-80m_RLatLon0.03_PT003H.grib2 2026-05-06 06:05 1.2M
20260506T00Z_MSC_CAPS_WindU_IsbL-0050_RLatLon0.03_PT003H.grib2 2026-05-06 06:05 962K
20260506T00Z_MSC_CAPS_WindU_IsbL-0100_RLatLon0.03_PT003H.grib2 2026-05-06 06:05 964K
20260506T00Z_MSC_CAPS_WindU_IsbL-0150_RLatLon0.03_PT003H.grib2 2026-05-06 06:05 927K
20260506T00Z_MSC_CAPS_WindU_IsbL-0175_RLatLon0.03_PT003H.grib2 2026-05-06 06:05 735K
20260506T00Z_MSC_CAPS_WindU_IsbL-0200_RLatLon0.03_PT003H.grib2 2026-05-06 06:05 757K
20260506T00Z_MSC_CAPS_WindU_IsbL-0225_RLatLon0.03_PT003H.grib2 2026-05-06 06:05 906K
20260506T00Z_MSC_CAPS_WindU_IsbL-0250_RLatLon0.03_PT003H.grib2 2026-05-06 06:05 923K
20260506T00Z_MSC_CAPS_WindU_IsbL-0275_RLatLon0.03_PT003H.grib2 2026-05-06 06:05 927K
20260506T00Z_MSC_CAPS_WindU_IsbL-0300_RLatLon0.03_PT003H.grib2 2026-05-06 06:05 937K
20260506T00Z_MSC_CAPS_WindU_IsbL-0350_RLatLon0.03_PT003H.grib2 2026-05-06 06:05 956K
20260506T00Z_MSC_CAPS_WindU_IsbL-0400_RLatLon0.03_PT003H.grib2 2026-05-06 06:05 967K
20260506T00Z_MSC_CAPS_WindU_IsbL-0450_RLatLon0.03_PT003H.grib2 2026-05-06 06:05 1.0M
20260506T00Z_MSC_CAPS_WindU_IsbL-0500_RLatLon0.03_PT003H.grib2 2026-05-06 06:05 1.0M
20260506T00Z_MSC_CAPS_WindU_IsbL-0550_RLatLon0.03_PT003H.grib2 2026-05-06 06:05 1.0M
20260506T00Z_MSC_CAPS_WindU_IsbL-0600_RLatLon0.03_PT003H.grib2 2026-05-06 06:05 934K
20260506T00Z_MSC_CAPS_WindU_IsbL-0650_RLatLon0.03_PT003H.grib2 2026-05-06 06:05 967K
20260506T00Z_MSC_CAPS_WindU_IsbL-0700_RLatLon0.03_PT003H.grib2 2026-05-06 06:05 1.0M
20260506T00Z_MSC_CAPS_WindU_IsbL-0750_RLatLon0.03_PT003H.grib2 2026-05-06 06:05 1.1M
20260506T00Z_MSC_CAPS_WindU_IsbL-0800_RLatLon0.03_PT003H.grib2 2026-05-06 06:05 1.1M
20260506T00Z_MSC_CAPS_WindU_IsbL-0850_RLatLon0.03_PT003H.grib2 2026-05-06 06:05 1.2M
20260506T00Z_MSC_CAPS_WindU_IsbL-0875_RLatLon0.03_PT003H.grib2 2026-05-06 06:05 1.2M
20260506T00Z_MSC_CAPS_WindU_IsbL-0900_RLatLon0.03_PT003H.grib2 2026-05-06 06:05 1.3M
20260506T00Z_MSC_CAPS_WindU_IsbL-0925_RLatLon0.03_PT003H.grib2 2026-05-06 06:05 1.3M
20260506T00Z_MSC_CAPS_WindU_IsbL-0950_RLatLon0.03_PT003H.grib2 2026-05-06 06:05 1.4M
20260506T00Z_MSC_CAPS_WindU_IsbL-0970_RLatLon0.03_PT003H.grib2 2026-05-06 06:05 1.4M
20260506T00Z_MSC_CAPS_WindU_IsbL-0985_RLatLon0.03_PT003H.grib2 2026-05-06 06:05 1.8M
20260506T00Z_MSC_CAPS_WindU_IsbL-1000_RLatLon0.03_PT003H.grib2 2026-05-06 06:05 1.8M
20260506T00Z_MSC_CAPS_WindU_IsbL-1015_RLatLon0.03_PT003H.grib2 2026-05-06 06:05 2.0M
20260506T00Z_MSC_CAPS_WindV_AGL-10m_RLatLon0.03_PT003H.grib2 2026-05-06 06:05 1.9M
20260506T00Z_MSC_CAPS_WindV_AGL-120m_RLatLon0.03_PT003H.grib2 2026-05-06 06:05 904K
20260506T00Z_MSC_CAPS_WindV_AGL-40m_RLatLon0.03_PT003H.grib2 2026-05-06 06:05 1.2M
20260506T00Z_MSC_CAPS_WindV_AGL-80m_RLatLon0.03_PT003H.grib2 2026-05-06 06:05 910K
20260506T00Z_MSC_CAPS_WindV_IsbL-0050_RLatLon0.03_PT003H.grib2 2026-05-06 06:05 788K
20260506T00Z_MSC_CAPS_WindV_IsbL-0100_RLatLon0.03_PT003H.grib2 2026-05-06 06:05 793K
20260506T00Z_MSC_CAPS_WindV_IsbL-0150_RLatLon0.03_PT003H.grib2 2026-05-06 06:05 915K
20260506T00Z_MSC_CAPS_WindV_IsbL-0175_RLatLon0.03_PT003H.grib2 2026-05-06 06:05 724K
20260506T00Z_MSC_CAPS_WindV_IsbL-0200_RLatLon0.03_PT003H.grib2 2026-05-06 06:05 874K
20260506T00Z_MSC_CAPS_WindV_IsbL-0225_RLatLon0.03_PT003H.grib2 2026-05-06 06:05 893K
20260506T00Z_MSC_CAPS_WindV_IsbL-0250_RLatLon0.03_PT003H.grib2 2026-05-06 06:05 704K
20260506T00Z_MSC_CAPS_WindV_IsbL-0275_RLatLon0.03_PT003H.grib2 2026-05-06 06:05 712K
20260506T00Z_MSC_CAPS_WindV_IsbL-0300_RLatLon0.03_PT003H.grib2 2026-05-06 06:05 721K
20260506T00Z_MSC_CAPS_WindV_IsbL-0350_RLatLon0.03_PT003H.grib2 2026-05-06 06:05 735K
20260506T00Z_MSC_CAPS_WindV_IsbL-0400_RLatLon0.03_PT003H.grib2 2026-05-06 06:05 739K
20260506T00Z_MSC_CAPS_WindV_IsbL-0450_RLatLon0.03_PT003H.grib2 2026-05-06 06:05 1.0M
20260506T00Z_MSC_CAPS_WindV_IsbL-0500_RLatLon0.03_PT003H.grib2 2026-05-06 06:05 1.0M
20260506T00Z_MSC_CAPS_WindV_IsbL-0550_RLatLon0.03_PT003H.grib2 2026-05-06 06:05 1.0M
20260506T00Z_MSC_CAPS_WindV_IsbL-0600_RLatLon0.03_PT003H.grib2 2026-05-06 06:05 931K
20260506T00Z_MSC_CAPS_WindV_IsbL-0650_RLatLon0.03_PT003H.grib2 2026-05-06 06:05 965K
20260506T00Z_MSC_CAPS_WindV_IsbL-0700_RLatLon0.03_PT003H.grib2 2026-05-06 06:05 1.3M
20260506T00Z_MSC_CAPS_WindV_IsbL-0750_RLatLon0.03_PT003H.grib2 2026-05-06 06:05 1.1M
20260506T00Z_MSC_CAPS_WindV_IsbL-0800_RLatLon0.03_PT003H.grib2 2026-05-06 06:05 1.1M
20260506T00Z_MSC_CAPS_WindV_IsbL-0850_RLatLon0.03_PT003H.grib2 2026-05-06 06:05 1.2M
20260506T00Z_MSC_CAPS_WindV_IsbL-0875_RLatLon0.03_PT003H.grib2 2026-05-06 06:05 1.2M
20260506T00Z_MSC_CAPS_WindV_IsbL-0900_RLatLon0.03_PT003H.grib2 2026-05-06 06:05 1.4M
20260506T00Z_MSC_CAPS_WindV_IsbL-0925_RLatLon0.03_PT003H.grib2 2026-05-06 06:05 1.4M
20260506T00Z_MSC_CAPS_WindV_IsbL-0950_RLatLon0.03_PT003H.grib2 2026-05-06 06:05 1.4M
20260506T00Z_MSC_CAPS_WindV_IsbL-0970_RLatLon0.03_PT003H.grib2 2026-05-06 06:05 1.5M
20260506T00Z_MSC_CAPS_WindV_IsbL-0985_RLatLon0.03_PT003H.grib2 2026-05-06 06:05 1.4M
20260506T00Z_MSC_CAPS_WindV_IsbL-1000_RLatLon0.03_PT003H.grib2 2026-05-06 06:05 1.5M
20260506T00Z_MSC_CAPS_WindV_IsbL-1015_RLatLon0.03_PT003H.grib2 2026-05-06 06:05 1.9M